Terug naar catalogus

COSMOS 475

ActiefMilitairLEO
NORAD 5846·PAYLOAD·🇷🇺 Russia

Gelanceerd Feb 25, 1972 vanaf Plesetsk Cosmodrome

Loading…

Volgende Passages (komende 24 uur)

TLE

VersSource: Space-Track

Epoch: Sep 14, 2026, 05:17 UTC

1 05846U 72009A   26257.22029056  .00000027  00000-0  50827-4 0  9994
2 05846  74.0518 342.4361 0023357 232.0172 156.3465 13.76425064739344

Volg COSMOS 475 in realtime met AllMySat

Download on the App Store